Find Starlink 32414

NORAD ID: 61667 Int'l Des: 2024-193 Owner: SPXS Country: US Constellation: starlink operational
LEOCIRCULAR

Current View

Loading 3D Globe...

About Starlink 32414

Starlink 32414 (NORAD 61667) is a starlink constellation satellite (v2 mini) launched Oct 26, 2024 by SPXS of US. It operates in LEO, CIRCULAR orbit with a mass of 730.00 kg.

Upcoming Passes

Passes for default location (London). Set your location on the main map for personalized predictions.

Altitude History

Loading altitude history...

Two-Line Element Set

1 61667U 24193G 26264.29125269 .00000781 00000-0 34266-4 0 9992
2 61667 53.1619 261.7848 0001389 80.5871 279.5288 15.34395727106485
Epoch: Sep 21, 2026 • Age: 7 hours

Current Status

Altitude 468.3 km
Apogee / Perigee N/A
Velocity 7.64 km/s
Sub-Earth Point 53.14°N, 139.39°E
Launch Date Oct 26, 2024
Age 1.9 years
Type internet

Technical Details

Classification Payload
Mass 730.00 kg
Dry Mass 700.00 kg
Length 0.30 m
Span 29.00 m
Shape ? Box + pan
Manufacturer SPXS
Bus Type Starlink V2M
Phase Status In Orbit
Owner/State SPXS/US

Most Searched